Location: El Carrer d�Abaix
(41.5797°N, 2.1791°E)
Time: 09:35:45
(UTC+00:00)

CENTAUR R/B - Pass Details

Date: 06 June 2020
Orbit: 759 x 1428 km, 63.5° (Epoch: 15 June)

Event Time Altitude Azimuth Distance (km) Brightness Sun altitude
Rises 22:44:52 0° 317° (NW) 4,270 6.9 -23.9°
Reaches altitude 10° 22:47:53 10° 309° (NW) 3,373 6.0 -24.0°
Maximum altitude 22:55:10 34° 249° (WSW) 2,148 4.2 -24.4°
Enters shadow 22:58:16 27° 214° (SSW) 2,450 4.2 -24.5°
